Total_Precipitation_Accumulation
0.89 0.86 0.78 0.77 0.71 0.77 0.87 0.94 0.90 0.81 0.75 0.69 0.66 0.70 0.73 0.77 0.80 0.86 0.93 0.88 0.96 1.18 1.34 1.35 1.19 1.03 1.00 1.05 1.03 0.99 1.06 1.12 1.12 1.20 1.30 1.33 1.29 1.15 1.00 0.95 0.83 0.74 0.80
0.94 0.90 0.85 0.86 0.83 0.84 0.96 0.94 0.86 0.89 0.88 0.78 0.67 0.66 0.72 0.79 0.85 0.81 0.85 0.95 0.96 0.99 1.25 1.45 1.46 1.24 1.19 1.15 1.15 1.16 1.19 1.15 1.09 1.12 1.21 1.27 1.31 1.15 0.97 0.86 0.79 0.74 0.75
0.84 0.87 0.87 0.87 0.91 1.00 1.04 1.07 0.90 0.91 0.86 0.77 0.71 0.66 0.64 0.67 0.72 0.77 0.74 0.73 0.81 0.89 1.08 1.39 1.59 1.47 1.37 1.32 1.23 1.21 1.27 1.18 1.08 1.07 1.11 1.10 1.17 1.14 1.04 0.99 0.87 0.84 0.80
0.77 0.90 0.91 0.88 0.91 1.03 1.11 1.15 1.05 1.00 0.92 0.88 0.85 0.77 0.70 0.71 0.69 0.77 0.77 0.69 0.80 0.77 0.90 1.03 1.22 1.36 1.42 1.41 1.34 1.27 1.28 1.09 0.97 1.01 1.04 0.99 1.02 1.05 0.95 1.00 0.90 0.84 0.79
0.84 1.01 1.10 1.11 1.11 1.12 1.11 1.06 1.11 1.09 1.06 1.04 0.97 0.92 0.83 0.75 0.79 0.74 0.77 0.78 0.74 0.78 0.85 0.68 0.73 0.84 1.08 1.28 1.36 1.46 1.42 1.15 0.97 0.99 1.08 0.92 0.85 0.91 0.86 0.91 0.81 0.74 0.70
1.19 1.32 1.32 1.40 1.46 1.34 1.29 1.23 1.23 1.18 1.12 1.14 1.05 0.94 0.86 0.76 0.83 0.87 0.86 0.87 0.82 0.77 0.83 0.72 0.65 0.57 0.69 0.96 1.22 1.50 1.64 1.38 1.11 1.02 1.10 0.97 0.81 0.80 0.79 0.83 0.78 0.66 0.64
1.52 1.72 1.69 1.73 1.76 1.63 1.58 1.64 1.82 1.77 1.50 1.27 1.28 1.11 0.93 0.77 0.87 0.90 0.88 0.91 0.93 1.00 1.05 0.93 0.75 0.68 0.58 0.61 0.75 1.18 1.69 1.52 1.32 1.16 1.13 1.07 0.87 0.73 0.66 0.67 0.73 0.67 0.62
1.44 1.57 1.83 1.92 1.84 1.85 1.97 1.99 2.30 2.43 2.01 1.59 1.57 1.67 1.40 1.19 0.93 0.78 0.83 0.86 0.94 1.14 1.17 0.97 0.85 0.73 0.65 0.68 0.48 0.70 1.27 1.40 1.38 1.36 1.27 1.18 1.00 0.78 0.67 0.58 0.59 0.67 0.66
1.41 1.51 1.66 1.82 1.83 1.89 1.98 2.09 2.41 2.85 2.61 2.08 1.85 2.02 1.72 1.53 1.34 0.97 0.81 0.83 0.94 1.13 1.24 1.16 1.08 0.97 0.81 0.83 0.72 0.62 0.75 0.87 1.19 1.50 1.49 1.35 1.16 0.88 0.71 0.66 0.59 0.68 0.69
1.30 1.37 1.51 1.65 1.77 1.79 1.92 2.02 2.13 2.58 2.89 2.57 2.27 1.94 1.61 1.54 1.62 1.42 1.05 0.95 1.00 1.06 1.14 1.11 1.10 1.18 1.09 1.00 0.90 0.70 0.65 0.59 0.88 1.36 1.65 1.62 1.39 1.17 0.96 0.83 0.73 0.77 0.77
1.40 1.39 1.53 1.60 1.62 1.68 1.78 2.11 2.36 2.60 2.78 2.71 2.61 2.43 2.18 1.88 1.51 1.60 1.54 1.28 1.16 1.09 1.10 1.13 1.15 1.18 1.17 1.15 1.22 0.93 0.68 0.59 0.62 1.04 1.56 1.86 1.74 1.48 1.27 1.10 0.94 0.93 0.97
1.49 1.54 1.59 1.60 1.57 1.60 1.71 1.93 2.21 2.41 2.72 2.89 2.77 2.55 2.39 2.23 1.99 1.84 1.62 1.52 1.47 1.23 1.17 1.17 1.13 1.17 1.24 1.32 1.32 1.29 0.85 0.58 0.51 0.68 1.08 1.53 1.78 1.72 1.55 1.39 1.21 1.15 1.19
1.38 1.42 1.53 1.65 1.72 1.75 1.86 2.03 2.18 2.09 2.30 2.67 2.65 2.49 2.37 2.14 2.09 2.13 1.96 1.67 1.52 1.22 1.15 1.13 1.08 1.19 1.21 1.22 1.43 1.62 1.06 0.69 0.53 0.60 0.71 0.94 1.25 1.54 1.73 1.73 1.58 1.48 1.45
1.34 1.28 1.33 1.44 1.58 1.74 1.78 1.83 1.85 1.82 1.94 2.18 2.26 2.42 2.50 2.24 2.07 1.95 1.87 1.88 1.64 1.41 1.24 1.12 1.04 1.06 1.11 1.16 1.38 1.56 1.13 0.87 0.63 0.56 0.58 0.69 0.82 0.97 1.23 1.48 1.70 1.75 1.75
1.11 1.03 1.04 1.08 1.16 1.24 1.31 1.47 1.56 1.66 1.71 1.83 1.98 2.10 2.25 2.33 2.23 1.99 1.90 1.86 1.82 1.64 1.43 1.32 1.18 1.01 1.11 1.21 1.41 1.24 1.12 1.07 0.84 0.65 0.59 0.61 0.66 0.70 0.79 0.86 1.02 1.23 1.46
1.02 0.96 0.92 0.87 0.84 0.82 0.86 1.04 1.23 1.34 1.45 1.61 1.80 1.93 1.94 2.00 2.17 2.13 1.95 1.91 1.81 1.68 1.54 1.37 1.28 1.14 1.30 1.21 1.35 1.18 1.21 1.28 0.95 0.73 0.63 0.62 0.60 0.56 0.54 0.55 0.54 0.59 0.68
1.01 1.00 0.91 0.84 0.91 0.91 0.86 0.91 0.97 1.03 1.10 1.25 1.40 1.53 1.68 1.93 2.21 2.23 2.18 2.06 1.92 1.76 1.52 1.39 1.18 1.11 1.40 1.49 1.40 1.26 1.24 1.22 1.00 0.86 0.71 0.65 0.63 0.58 0.54 0.49 0.47 0.45 0.46
0.68 0.78 0.86 0.81 0.80 0.82 0.84 0.89 0.91 0.95 0.97 1.05 1.15 1.27 1.44 1.74 2.07 2.29 2.37 2.27 2.12 1.96 1.80 1.65 1.32 1.08 1.20 1.53 1.67 1.60 1.37 1.20 1.09 1.02 0.88 0.76 0.70 0.64 0.58 0.56 0.54 0.50 0.46
0.52 0.56 0.66 0.67 0.75 0.82 0.84 0.86 0.88 0.91 0.93 1.02 1.16 1.21 1.27 1.47 1.66 1.87 2.06 2.18 2.17 2.14 2.09 1.85 1.55 1.29 1.22 1.36 1.61 1.64 1.55 1.50 1.29 1.22 1.21 1.08 0.95 0.84 0.74 0.64 0.62 0.58 0.51
0.54 0.61 0.73 0.77 0.72 0.70 0.74 0.85 0.89 0.84 0.83 0.87 0.96 1.05 1.15 1.20 1.35 1.50 1.60 1.79 2.00 2.23 2.29 2.14 1.88 1.56 1.44 1.33 1.44 1.60 1.67 1.62 1.53 1.34 1.30 1.20 1.18 1.12 1.00 0.84 0.70 0.63 0.61
0.61 0.63 0.72 0.83 0.89 0.84 0.81 0.90 0.87 0.84 0.84 0.83 0.88 0.88 0.95 0.97 1.03 1.22 1.26 1.48 1.80 2.06 2.17 2.23 2.11 1.81 1.55 1.37 1.17 1.28 1.54 1.75 1.75 1.65 1.65 1.42 1.29 1.16 1.07 1.03 0.95 0.83 0.73
0.50 0.49 0.53 0.59 0.69 0.73 0.93 0.89 0.74 0.70 0.75 0.82 0.87 0.87 0.89 0.83 0.81 0.88 1.01 1.14 1.43 1.64 1.77 1.84 1.87 1.72 1.51 1.37 1.33 1.30 1.37 1.51 1.56 1.44 1.47 1.55 1.50 1.36 1.26 1.14 1.15 1.19 1.10
0.42 0.39 0.38 0.38 0.45 0.60 0.68 0.53 0.51 0.57 0.71 0.83 0.90 0.92 0.89 0.84 0.88 0.89 0.91 0.92 0.99 1.17 1.38 1.57 1.60 1.50 1.56 1.47 1.39 1.29 1.31 1.33 1.31 1.41 1.46 1.52 1.51 1.42 1.35 1.34 1.37 1.27 1.21
0.31 0.30 0.38 0.45 0.46 0.48 0.54 0.44 0.43 0.54 0.73 0.87 0.87 0.83 0.89 0.91 0.94 1.00 0.93 1.00 0.95 0.94 1.02 1.07 1.21 1.41 1.55 1.72 1.69 1.58 1.59 1.53 1.44 1.53 1.54 1.49 1.39 1.32 1.23 1.21 1.27 1.15 1.07
0.34 0.38 0.49 0.56 0.50 0.42 0.47 0.48 0.53 0.68 0.81 0.89 0.86 0.85 0.93 0.97 1.10 1.15 1.06 1.11 1.07 1.03 1.00 1.11 1.20 1.30 1.38 1.50 1.65 1.69 1.65 1.61 1.48 1.41 1.42 1.36 1.26 1.28 1.27 1.15 1.08 1.08 0.98
0.31 0.39 0.41 0.38 0.38 0.44 0.51 0.50 0.63 0.81 0.93 1.03 0.99 0.99 1.17 1.12 1.10 1.05 1.03 1.17 1.14 0.99 0.92 0.96 1.01 1.09 1.12 1.22 1.35 1.39 1.52 1.58 1.50 1.36 1.19 1.17 1.18 1.21 1.26 1.15 1.04 0.97 0.92